Terminal Aerodrome Forecast
Issued by NWS Charleston, WV

Current Version | Previous Version | Graphics & Text | Print | Product List | Glossary On
Versions: 1 2 3 4 5 6 7 8 9 10 11 12 13 14 15 16 17 18 19
000
FTUS41 KRLX 251140
TAFEKN
TAF
KEKN 251140Z 2512/2612 00000KT P6SM BKN050
     FM251600 28007KT P6SM SCT050
     FM260000 00000KT P6SM SKC
     FM260400 00000KT P6SM BKN045=

USA.gov is the U.S. government's official web portal to all federal, state and local government web resources and services.